Regional Weather Roundup
Issued by NWS Newport/Morehead, NC

Home | Current Version | Previous Version | Text Only | Print | Product List | Glossary On
Versions: 1 2 3 4 5 6 7 8 9 10 11 12 13 14 15 16 17 18 19 20 21 22 23 24 25 26 27 28 29 30 31 32 33 34 35 36 37 38 39 40 41 42 43 44 45 46 47 48 49 50
119
ASUS42 KMHX 120325
RWRMHX
WEATHER ROUNDUP FOR EASTERN NORTH CAROLINA
NATIONAL WEATHER SERVICE NEWPORT/MOREHEAD CITY NC
1000 PM EST THU FEB 11 2016

NOTE: "FAIR" INDICATES FEW OR NO CLOUDS BELOW 12,000 FEET
WITH NO SIGNIFICANT WEATHER AND/OR OBSTRUCTIONS TO VISIBILITY

NCZ015>017-031-032-045>047-102-103-120400-
NORTH COAST

CITY           SKY/WX    TMP DP  RH WIND       PRES   REMARKS
EDENTON        CLEAR     28  16  60 CALM      30.31S
ELIZABETH CITY CLEAR     26  12  55 NW6       30.31R
KITTY HAWK     CLEAR     32  12  43 CALM      30.29R
MANTEO         CLEAR     34   8  34 N5        30.31R

$$

NCZ045>047-081-094-103-104-120400-
CENTRAL COAST

CITY           SKY/WX    TMP DP  RH WIND       PRES   REMARKS
FRISCO         CLEAR     36  12  37 NW6       30.30R
SWANQUARTER      N/A     27 N/A N/A CALM      30.27S

$$

NCZ095-097-098-100-101-120400-
SOUTHERN COAST

CITY           SKY/WX    TMP DP  RH WIND       PRES   REMARKS
BEAUFORT       CLEAR     28  19  69 CALM      30.31R
CEDAR ISLAND     N/A     37 N/A N/A NW9       30.36S
JACKSONVILLE   CLEAR     30  23  75 CALM      30.30R
PINEY ISLAND   CLEAR    N/A N/A N/A CALM      30.31R
WILMINGTON     CLEAR     32  25  75 CALM      30.30R


$$

NCZ011>013-027>030-043-044-078>080-089-090>093-098-120400-
COASTAL PLAIN

CITY           SKY/WX    TMP DP  RH WIND       PRES   REMARKS
AHOSKIE        CLEAR     25  11  54 CALM      30.32R
CLINTON        CLEAR     30  24  80 CALM      30.29S
ELIZABETHTOWN  CLEAR     31  23  71 SE3       30.28R
GOLDSBORO      CLEAR     28  18  64 CALM      30.27R
GREENVILLE     CLEAR     27  19  74 CALM      30.31R
HAVELOCK       CLEAR     28  22  78 CALM      30.32R
KENANSVILLE    CLEAR     26  21  84 CALM      30.31S
KINSTON        CLEAR     27  20  75 CALM      30.30S
NEW BERN       CLEAR     27  18  69 S3        30.32R
RICHLANDS      CLEAR     27  18  69 CALM      30.30S
ROCKY MOUNT    CLEAR     26  16  65 CALM      30.30R
WASHINGTON     CLEAR     27  17  68 CALM      30.31R
WHITEVILLE     CLEAR     32  24  73 CALM      30.27S

$$

AMZ130-135-150-152-154-156-158-170-250-252-270-ANZ085-086-088-633-658-670-120400-
MARINE OBSERVATIONS

STATION/POSITION TIME  TEMP    WIND        PRES    WAVE   SWELL
                       AIR SEA DIR/SP/G            HT/PER HT/PER
                 (UTC) (F)     (DEG/KT/KT) (MB)    (FT/S) (FT/S)
CHESAPEAKE LIGHT 0300   33     350/ 19/ 20 1026.1
64 E VA BEACH    0250   36 49  310/ 17/ 21 1024.7    5/ 6   2/ 9
DUCK             0300   34                 1025.3
2 E DUCK         0211      43                N/A     2/13
OREGON INLET     0300   34 41              1025.9
13E OREGON INLT  0300      46                N/A     4/ 6
HATTERAS CG      0300   38 45              1025.6
DIAMOND BUOY     0250   42 69  320/ 14/ 17 1026.1    4/ 7   2/ 7
CAPE LOOKOUT     NOT AVBL
BEAUFORT LAB     0300   36 45              1025.3
30 SE NEW RVR IN 0308   45 59              1025.7
30 SE NEW RVR IN 0225      59                N/A     4/ 8
27 SE WRIGHTSVLE 0208   46 61   10/  6/ 10 1023.5
5 SE WRIGHTSVLE  0208   45 50  280/  2/  4 1025.7
225 S CAPE HAT   0250   56 68  300/ 16/ 19   N/A     8/ 8   5/ 8
41 SE CHARLESTON 0250   54 67  240/  2/  4 1024.2    2/ 5   2/ 5

$$




USA.gov is the U.S. government's official web portal to all federal, state and local government web resources and services.